[Date Prev][Date Next][Thread Prev][Thread Next] - [Date Index][Thread Index][Author Index]

2 Line ISS Keps 6-5



ISS 
1 25544U 98067A   05156.29578567  .00017112  00000-0  12973-3 0  6282
2 25544 051.6464 321.8434 0004794 205.7486 225.3383 15.72480243373813
----
Via the sarex mailing list at AMSAT.ORG courtesy of AMSAT-NA.
To unsubscribe, send "unsubscribe sarex" to Majordomo@amsat.org



AMSAT Top AMSAT Home